This is the latest recevied weather packets stored in our database for station/object RW6A-13. If no packets are shown the sender has not sent any weather packets the latest 1 day(s).
| Time | Temp. | Humidity | Pressure | Rain* | Wind** | Luminosity | Snow |
|---|---|---|---|---|---|---|---|
| 1778059847 | 24.44° C | 45% | 1010 hPa | 0 mm | - | - | - |
| 1778059546 | 23.89° C | 46% | 1010.1 hPa | 0 mm | - | - | - |
| 1778058946 | 24.44° C | 43% | 1010 hPa | 0 mm | - | - | - |
| 1778058646 | 23.89° C | 43% | 1010 hPa | 0 mm | - | - | - |
| 1778058346 | 23.89° C | 43% | 1010 hPa | 0 mm | - | - | - |
| 1778058046 | 23.89° C | 43% | 1010.1 hPa | 0 mm | - | - | - |
| 1778057746 | 23.89° C | 44% | 1010.1 hPa | 0 mm | - | - | - |
| 1778057146 | 23.89° C | 43% | 1010.1 hPa | 0 mm | - | - | - |
| 1778056846 | 23.89° C | 42% | 1010.2 hPa | 0 mm | - | - | - |
| 1778055946 | 23.89° C | 45% | 1010.4 hPa | 0 mm | - | - | - |
| 1778055346 | 23.33° C | 50% | 1010.4 hPa | 0 mm | - | - | - |
| 1778055045 | 23.33° C | 46% | 1010.4 hPa | 0 mm | - | - | - |
| 1778054446 | 23.33° C | 48% | 1010.5 hPa | 0 mm | - | - | - |
| 1778054145 | 23.33° C | 46% | 1010.4 hPa | 0 mm | - | - | - |
| 1778053845 | 23.33° C | 45% | 1010.4 hPa | 0 mm | - | - | - |
| 1778053245 | 23.33° C | 48% | 1010.4 hPa | 0 mm | - | - | - |
| 1778052945 | 22.78° C | 46% | 1010.4 hPa | 0 mm | - | - | - |
| 1778052646 | 22.78° C | 48% | 1010.4 hPa | 0 mm | - | - | - |
| 1778052346 | 22.78° C | 50% | 1010.4 hPa | 0 mm | - | - | - |
| 1778051445 | 21.67° C | 48% | 1010.4 hPa | 0 mm | - | - | - |
| 1778051145 | 21.67° C | 51% | 1010.5 hPa | 0 mm | - | - | - |
| 1778050545 | 21.11° C | 50% | 1010.4 hPa | 0 mm | - | - | - |
| 1778049645 | 20.56° C | 49% | 1010.4 hPa | 0 mm | - | - | - |
| 1778049345 | 20° C | 50% | 1010.5 hPa | 0 mm | - | - | - |
| 1778048745 | 20° C | 51% | 1010.6 hPa | 0 mm | - | - | - |
* Rain latest hour (hover to see other rain measurements)
** Current wind speed in m/s (hover to see current wind gust speed)